[[{"header":{"parameterUnit":"m.s-1","parameterCategory":1,"la1":30.2991,"la2":30.254,"lo1":-89.0895,"lo2":-89.0444,"dy":0.0017,"dx":0.0017,"nx":28,"ny":28,"refTime":"2024-02-16T03:00:00:Z","depth":0,"parameterNumber":2,"parameterNumberName":"U-component_of_WINDS"},"data":[0,0,0,0,0,0,0,0,0,0,0,0,0,0,0,0,0,0,0,0,0,0,0,0,0,0,0,0,0,0,0,0,0,0,0,0,0,0,0,0,0,0,0,0,0,0,0,0,0,0,0,0,0,0,0,0,0,0,0.4777,0.4777,0,0.4829,0.483,0.483,0.4849,0.4849,0.4849,0.4848,0.49,0.4902,0.4904,0,0,0,0,0,0,0,0,0,0,0,0,0,0.4693,0.4694,0.4777,0.4777,0.4778,0.4829,0.483,0.4831,0.4849,0.4849,0.4848,0.4848,0.49,0.4902,0.4904,0,0,0,0,0,0,0,0,0,0,0,0,0,0.4735,0.4695,0.4776,0.4793,0.4795,0.4829,0.483,0.4831,0.4849,0.4849,0.4848,0.4848,0.4899,0.4902,0.4904,0.4924,0,0,0.4911,0.4912,0,0,0,0,0,0,0,0,0.4733,0.4739,0.479,0.4792,0.4795,0.4832,0.4819,0.4862,0.4849,0.4829,0.4848,0.4848,0.4878,0.4882,0.4892,0.4927,0.4929,0.4911,0.4913,0.4914,0.4914,0,0,0,0,0,0,0,0.473,0.4736,0.4797,0.4791,0.4794,0.4798,0.4804,0.4828,0.4854,0.483,0.4832,0.4838,0.4879,0.489,0.4894,0.493,0.4911,0.4913,0.4915,0.4916,0.4987,0.4987,0,0,0,0,0,0,0.4724,0.4734,0.4796,0.4799,0.4763,0.48,0.4807,0.482,0.4854,0.4859,0.4838,0.4839,0.4886,0.4891,0.4896,0.4924,0.4914,0.4916,0.4917,0.4986,0.4987,0.4987,0,0,0,0,0,0,0.4722,0.473,0.4794,0.4767,0.4775,0.4802,0.4817,0.4822,0.4833,0.486,0.4865,0.4845,0.4886,0.4892,0.4918,0.4926,0.4917,0.4919,0.4986,0.4986,0.4987,0.4979,0,0,0,0,0,0,0.472,0.4729,0.4736,0.4767,0.4777,0.4815,0.4818,0.4823,0.4837,0.4838,0.4867,0.4872,0.4886,0.4914,0.492,0.4929,0.4921,0.4985,0.4986,0.4987,0.4978,0.4979,0.498,0,0,0,0,0,0.4717,0.4731,0.4737,0.4744,0.4787,0.4815,0.4821,0.4838,0.4837,0.4846,0.4864,0.4871,0.4924,0.4917,0.4924,0.4933,0.4985,0.4986,0.4987,0.4978,0.4979,0.498,0,0,0,0,0,0,0.4699,0.4735,0.4742,0.4766,0.4788,0.4818,0.4828,0.4838,0.4859,0.4859,0.4879,0.4886,0.491,0.4924,0.4915,0.4956,0.4955,0.4957,0.4946,0.4947,0.4948,0.4944,0.4923,0,0,0,0,0,0.4698,0.4718,0.4748,0.4767,0.4777,0.4801,0.4814,0.4826,0.4849,0.4858,0.4877,0.4899,0.4921,0.4935,0.4956,0.4981,0.4989,0.4991,0.4992,0.4992,0.4994,0.5011,0.5013,0.4991,0.4991,0.4991,0,0,0.4696,0.4718,0.4729,0.4764,0.4782,0.4803,0.4809,0.4829,0.4846,0.486,0.4887,0.4902,0.4928,0.4954,0.4966,0.4966,0.5002,0.4993,0.4993,0.4995,0.5012,0.5014,0.5016,0.4992,0.4991,0.4991,0,0,0.4702,0.4721,0.4739,0.4758,0.4786,0.4803,0.4807,0.4837,0.4849,0.4875,0.4888,0.4908,0.4944,0.4963,0.4977,0.4995,0.5003,0.5002,0.5005,0.5021,0.5023,0.5024,0.5032,0.5035,0.5003,0.5003,0.5003,0,0.4696,0.4728,0.4748,0.4769,0.4785,0.4802,0.4821,0.4838,0.4871,0.4882,0.4882,0.4931,0.4949,0.4981,0.4986,0.4997,0.5004,0.4998,0.5021,0.5023,0.5025,0.5033,0.5035,0.5003,0.5003,0.5003,0.5003,0,0.4719,0.4742,0.4753,0.4787,0.4804,0.4825,0.4848,0.4864,0.4875,0.4892,0.492,0.4943,0.4971,0.498,0.499,0.5014,0.5014,0.5017,0.5016,0.5026,0.5034,0.5037,0.5003,0.5003,0.5003,0.5003,0,0,0.4714,0.4761,0.4765,0.4782,0.4816,0.4833,0.4856,0.4884,0.4898,0.4921,0.4941,0.4974,0.4978,0.4994,0.5007,0.5021,0.5037,0.5024,0.5025,0.5026,0.5068,0.5066,0.5069,0.5043,0.5044,0.5044,0.5066,0,0.4726,0.4767,0.4787,0.4819,0.4841,0.4859,0.4879,0.4902,0.4919,0.4941,0.496,0.4983,0.4986,0.4997,0.5012,0.5032,0.5046,0.5031,0.5063,0.5064,0.5056,0.5072,0.5069,0.5089,0.5069,0.507,0.507,0,0.4744,0.477,0.4805,0.4839,0.4849,0.4866,0.4896,0.4916,0.4944,0.4956,0.4976,0.4989,0.5015,0.5013,0.5049,0.5039,0.5053,0.5066,0.5067,0.507,0.5067,0.5078,0.5095,0.5098,0.5075,0.5075,0.5074,0,0.4738,0.4781,0.4809,0.4822,0.4862,0.4875,0.4892,0.492,0.4937,0.4963,0.4974,0.5002,0.5018,0.504,0.5061,0.5058,0.5096,0.5095,0.5108,0.5107,0.5115,0.5114,0.5136,0.5123,0.5123,0.5123,0.5123,0,0.475,0.4771,0.4807,0.4823,0.4849,0.4872,0.4897,0.4915,0.4941,0.4962,0.4979,0.4999,0.5026,0.5049,0.5066,0.5095,0.5101,0.5112,0.5117,0.5111,0.511,0.5121,0.512,0.5124,0.5123,0.5123,0.5123,0,0.4747,0.4772,0.4803,0.484,0.485,0.4867,0.4899,0.4916,0.4936,0.4963,0.4971,0.5001,0.503,0.5054,0.5091,0.5103,0.5133,0.5138,0.5124,0.5127,0.5138,0.5137,0.5168,0.5174,0.5156,0.5157,0.5157,0,0.4752,0.4769,0.4809,0.4826,0.4843,0.4869,0.4887,0.4912,0.4931,0.4966,0.498,0.5011,0.5036,0.5082,0.5108,0.5137,0.5143,0.5152,0.5148,0.5143,0.5145,0.5144,0.5147,0.5152,0.5152,0.5153,0.5153,0,0.476,0.4773,0.4799,0.483,0.4852,0.4878,0.4903,0.4916,0.4946,0.4966,0.4997,0.5018,0.5058,0.5089,0.5122,0.514,0.5152,0.5154,0.5159,0.5153,0.5146,0.5152,0.5126,0.5153,0.5153,0.5153,0.5153,0.5153,0.4762,0.478,0.4811,0.4841,0.4864,0.4888,0.4908,0.4931,0.4957,0.4993,0.5006,0.5038,0.5069,0.5115,0.5134,0.516,0.5161,0.5168,0.5169,0.5171,0.5171,0.5142,0.5166,0.5166,0.5166,0.5166,0.5166,0,0.4772,0.4794,0.4821,0.4859,0.4882,0.4893,0.4923,0.4943,0.4971,0.4999,0.5025,0.5062,0.5093,0.5123,0.5156,0.5171,0.5178,0.5179,0.5178,0.5183,0.5167,0.516,0.5173,0.5173,0.5173,0.5173,0.5173,0.5173,0.478,0.481,0.4827,0.487,0.4893,0.4925,0.4942,0.4966,0.4989,0.503,0.5056,0.5076,0.5105,0.5141,0.5171,0.5179,0.519,0.5191,0.52,0.5185,0.5184,0.5183,0.5177,0.5193,0.5193,0.5214,0.5214,0.5214]},{"header":{"parameterUnit":"m.s-1","parameterCategory":1,"la1":30.2991,"la2":30.254,"lo1":-89.0895,"lo2":-89.0444,"dy":0.0017,"dx":0.0017,"nx":28,"ny":28,"refTime":"2024-02-16T03:00:00:Z","depth":0,"parameterNumber":3,"parameterNumberName":"V-component_of_WINDS"},"data":[0,0,0,0,0,0,0,0,0,0,0,0,0,0,0,0,0,0,0,0,0,0,0,0,0,0,0,0,0,0,0,0,0,0,0,0,0,0,0,0,0,0,0,0,0,0,0,0,0,0,0,0,0,0,0,0,0,0,-6.6794,-6.6794,0,-6.6766,-6.6766,-6.6766,-6.6712,-6.6711,-6.671,-6.6709,-6.6679,-6.6679,-6.6679,0,0,0,0,0,0,0,0,0,0,0,0,0,-6.6802,-6.6802,-6.6794,-6.6794,-6.6794,-6.6766,-6.6766,-6.6766,-6.6712,-6.6711,-6.671,-6.6709,-6.6679,-6.6679,-6.6679,0,0,0,0,0,0,0,0,0,0,0,0,0,-6.6789,-6.6802,-6.6794,-6.6764,-6.6761,-6.6766,-6.6766,-6.6765,-6.6713,-6.6711,-6.671,-6.6708,-6.6679,-6.6679,-6.6679,-6.6712,0,0,-6.668,-6.668,0,0,0,0,0,0,0,0,-6.6789,-6.6788,-6.6769,-6.6766,-6.6763,-6.6741,-6.6757,-6.6747,-6.6713,-6.6731,-6.6709,-6.6707,-6.6701,-6.6699,-6.6697,-6.671,-6.6709,-6.668,-6.668,-6.668,-6.668,0,0,0,0,0,0,0,-6.679,-6.6789,-6.6783,-6.6768,-6.6765,-6.6752,-6.6748,-6.6755,-6.6725,-6.6729,-6.6725,-6.6723,-6.6699,-6.6697,-6.6696,-6.6709,-6.668,-6.668,-6.668,-6.6681,-6.6748,-6.675,0,0,0,0,0,0,-6.6796,-6.679,-6.6784,-6.6782,-6.6773,-6.6753,-6.6749,-6.675,-6.6725,-6.6719,-6.6724,-6.672,-6.6698,-6.6696,-6.6695,-6.6731,-6.668,-6.6681,-6.6681,-6.6747,-6.6749,-6.675,0,0,0,0,0,0,-6.6796,-6.6796,-6.6785,-6.6785,-6.6783,-6.6754,-6.6756,-6.675,-6.6748,-6.6721,-6.6715,-6.6728,-6.6696,-6.6695,-6.6708,-6.673,-6.6681,-6.6681,-6.6745,-6.6747,-6.6749,-6.6805,0,0,0,0,0,0,-6.6797,-6.6796,-6.6808,-6.6786,-6.6783,-6.6799,-6.6757,-6.675,-6.6749,-6.6744,-6.6723,-6.6718,-6.6695,-6.6708,-6.6709,-6.6729,-6.6681,-6.6743,-6.6746,-6.6749,-6.6801,-6.6809,-6.6815,0,0,0,0,0,-6.6797,-6.6824,-6.6809,-6.6808,-6.6797,-6.68,-6.6799,-6.6772,-6.6751,-6.6762,-6.6745,-6.6719,-6.6728,-6.671,-6.671,-6.6731,-6.6741,-6.6745,-6.6748,-6.6797,-6.6807,-6.6815,0,0,0,0,0,0,-6.6848,-6.682,-6.6803,-6.6824,-6.6815,-6.6791,-6.6805,-6.6783,-6.6779,-6.6775,-6.6742,-6.6737,-6.6756,-6.6745,-6.6726,-6.6762,-6.673,-6.6734,-6.6768,-6.6777,-6.6784,-6.6785,-6.6681,0,0,0,0,0,-6.6862,-6.6867,-6.6843,-6.6863,-6.686,-6.6834,-6.6834,-6.6815,-6.6804,-6.6799,-6.6783,-6.6773,-6.6774,-6.6775,-6.6774,-6.68,-6.6794,-6.6814,-6.6822,-6.6828,-6.6831,-6.6844,-6.6853,-6.6763,-6.6763,-6.6762,0,0,-6.689,-6.6876,-6.6881,-6.6873,-6.6864,-6.687,-6.6831,-6.6838,-6.6842,-6.68,-6.6812,-6.6801,-6.6788,-6.6808,-6.6816,-6.6799,-6.6855,-6.6833,-6.6838,-6.6837,-6.6849,-6.6858,-6.6865,-6.6765,-6.6765,-6.6764,0,0,-6.6944,-6.6935,-6.6951,-6.6943,-6.693,-6.6913,-6.6917,-6.6897,-6.6888,-6.69,-6.6869,-6.6874,-6.6875,-6.6867,-6.6864,-6.6918,-6.6894,-6.6919,-6.6957,-6.697,-6.6977,-6.6983,-6.7002,-6.701,-6.6923,-6.6923,-6.6923,0,-6.6981,-6.6988,-6.6962,-6.6972,-6.6969,-6.6934,-6.695,-6.6944,-6.6931,-6.693,-6.6913,-6.6915,-6.6904,-6.6922,-6.6935,-6.6934,-6.6937,-6.692,-6.6979,-6.6984,-6.699,-6.7007,-6.7015,-6.6926,-6.6926,-6.6925,-6.6925,0,-6.7034,-6.704,-6.7055,-6.7045,-6.7044,-6.7057,-6.7033,-6.7036,-6.7018,-6.7002,-6.7016,-6.7002,-6.6997,-6.7001,-6.6982,-6.7017,-6.7007,-6.6985,-6.6952,-6.7002,-6.7018,-6.7024,-6.693,-6.6929,-6.6928,-6.6928,0,0,-6.7116,-6.7093,-6.7099,-6.7094,-6.7079,-6.7083,-6.7095,-6.7092,-6.7095,-6.7089,-6.7098,-6.7102,-6.7082,-6.7078,-6.7059,-6.7071,-6.7115,-6.7047,-6.7046,-6.7059,-6.7152,-6.7167,-6.7176,-6.7099,-6.71,-6.7101,-6.7152,0,-6.7166,-6.7185,-6.7163,-6.7187,-6.7192,-6.716,-6.7171,-6.7163,-6.715,-6.7153,-6.7138,-6.7141,-6.7114,-6.7112,-6.7123,-6.7107,-6.7132,-6.7103,-6.7107,-6.7107,-6.7109,-6.7184,-6.72,-6.7249,-6.7158,-6.716,-6.716,0,-6.7225,-6.7223,-6.7248,-6.7232,-6.7234,-6.7244,-6.724,-6.7243,-6.7234,-6.7224,-6.7221,-6.7199,-6.721,-6.718,-6.7195,-6.7176,-6.7177,-6.717,-6.7171,-6.7168,-6.7135,-6.7183,-6.7264,-6.727,-6.717,-6.7169,-6.7169,0,-6.7282,-6.7285,-6.7301,-6.7298,-6.728,-6.7288,-6.7281,-6.727,-6.7271,-6.7268,-6.7267,-6.7266,-6.7265,-6.7264,-6.7242,-6.7223,-6.726,-6.7228,-6.7251,-6.7252,-6.7258,-6.7258,-6.7339,-6.7262,-6.7262,-6.7262,-6.7261,0,-6.7339,-6.7355,-6.7326,-6.7335,-6.7353,-6.7328,-6.7346,-6.7336,-6.7327,-6.7334,-6.7307,-6.7314,-6.7285,-6.7289,-6.7273,-6.7288,-6.7287,-6.7279,-6.7274,-6.7281,-6.7282,-6.7279,-6.7274,-6.7264,-6.7263,-6.7263,-6.7262,0,-6.7404,-6.7385,-6.74,-6.7383,-6.7379,-6.7393,-6.7378,-6.7386,-6.7373,-6.7382,-6.7383,-6.7361,-6.7365,-6.7344,-6.7344,-6.7333,-6.7355,-6.7345,-6.7359,-6.7355,-6.7378,-6.7376,-6.746,-6.7469,-6.7387,-6.7388,-6.7389,0,-6.744,-6.7452,-6.7437,-6.744,-6.7435,-6.744,-6.7441,-6.7417,-6.7419,-6.7411,-6.742,-6.7422,-6.7422,-6.743,-6.7414,-6.7414,-6.7403,-6.7432,-6.7402,-6.7409,-6.7402,-6.7401,-6.7402,-6.7438,-6.7439,-6.7439,-6.744,0,-6.7506,-6.7497,-6.7499,-6.7499,-6.7501,-6.7499,-6.7495,-6.7499,-6.7474,-6.7478,-6.7482,-6.7482,-6.7483,-6.7485,-6.7482,-6.7475,-6.7453,-6.745,-6.7455,-6.7461,-6.7468,-6.7463,-6.7374,-6.7448,-6.7447,-6.7446,-6.7446,-6.7446,-6.7557,-6.7566,-6.7558,-6.7562,-6.7557,-6.7555,-6.7562,-6.755,-6.7553,-6.7552,-6.7539,-6.7546,-6.7538,-6.7532,-6.7528,-6.7533,-6.7518,-6.7526,-6.7528,-6.7529,-6.7533,-6.7469,-6.7532,-6.7532,-6.7532,-6.7532,-6.7531,0,-6.7621,-6.7614,-6.7618,-6.7615,-6.7618,-6.76,-6.7595,-6.7599,-6.7606,-6.7601,-6.7602,-6.7607,-6.761,-6.7596,-6.7596,-6.7603,-6.7593,-6.7604,-6.7602,-6.7601,-6.7546,-6.7541,-6.7612,-6.7612,-6.7612,-6.7612,-6.7612,-6.7612,-6.7654,-6.7669,-6.766,-6.7673,-6.7666,-6.7673,-6.7672,-6.7671,-6.7666,-6.7674,-6.7676,-6.7668,-6.7659,-6.7659,-6.7661,-6.7657,-6.7658,-6.7672,-6.7664,-6.7613,-6.7605,-6.7597,-6.7592,-6.7672,-6.7673,-6.7718,-6.7718,-6.7719]}]]